Home   Weather   George Washington   Past weeks
Flag for Cuba

Past Weather in George Washington, Cuba — Yesterday and Last 2 Weeks

Now
91 °F

Partly sunny.


Feels Like: 99 °F
Forecast: 87 / 75 °F
Wind: 10 mph from East

Location: Cienfuegos - Las Villas

Current Time: May 26, 2019 at 1:58:58 pm

Latest Report: May 26, 2019 at 12:50 pm


Visibility: N/A

Pressure: 30.01 "Hg

Humidity: 52%

Dew Point: 72 °F

Location of George WashingtonLocation

Past Weather in George Washington — Graph

°F

George Washington Temperature Yesterday

Maximum temperature yesterday: 90 °F (at 2:52 pm)
Minimum temperature yesterday: 72 °F (at 4:59 am)
Average temperature yesterday: 79 °F

High & Low Weather Summary for the Past Weeks

 TemperatureHumidityPressure
High91 °F (May 11, 1:51 pm)100% (May 12, 3:58 am)30.07 "Hg (May 12, 3:58 am)
Low66 °F (May 19, 6:59 am)41% (May 21, 1:50 pm)29.89 "Hg (May 11, 4:59 pm)
Average80 °F78%29.97 "Hg
* Reported May 11 12:50 pm — May 26 12:50 pm, George Washington. Weather by CustomWeather, © 2019

Note: Actual official high and low records may vary slightly from our data, if they occured in-between our weather recording intervals... More about our weather records

Advertising

George Washington Weather History for the Previous 24 Hours

Scroll right to see more
 ConditionsComfort  
Time TempWeatherWind HumidityBarometerVisibility
12:50 pm
Sun, May 26
91 °FPartly sunny.10 mph52%30.01 "HgN/A
11:50 am90 °FScattered clouds.10 mph55%30.04 "HgN/A
10:50 am88 °FScattered clouds.12 mph62%30.04 "HgN/A
9:50 am86 °FScattered clouds.9 mph66%30.04 "HgN/A
8:50 am82 °FScattered clouds.9 mph74%30.04 "HgN/A
7:59 am79 °FWarm.9 mph84%30.04 "HgN/A
6:58 am75 °FMild.8 mph94%30.01 "HgN/A
5:59 am75 °FMild.12 mph94%29.98 "HgN/A
4:59 am75 °FMild.9 mph94%29.98 "HgN/A
3:59 am75 °FMild.7 mph94%29.98 "HgN/A
2:59 am77 °FWarm.9 mph89%29.98 "HgN/A
1:58 am77 °FWarm.8 mph89%30.01 "HgN/A
12:59 am75 °FMild.5 mph94%30.04 "HgN/A
11:58 pm
Sat, May 25
77 °FWarm.6 mph89%30.04 "HgN/A
10:59 pm77 °FWarm.6 mph89%30.01 "HgN/A
9:59 pm77 °FWarm.7 mph89%30.01 "HgN/A
8:58 pm79 °FWarm.7 mph84%29.98 "HgN/A
7:59 pm79 °FWarm.8 mph84%29.98 "HgN/A
6:58 pm79 °FWarm.3 mph94%29.98 "HgN/A
5:58 pm84 °FWarm.7 mph70%29.95 "HgN/A
4:59 pm86 °FWarm.10 mph70%29.95 "HgN/A
3:53 pm81 °FScattered showers. Scattered clouds.8 mph84%N/A6 mi
2:52 pm90 °FScattered showers. Passing clouds.12 mph59%29.95 "Hg6 mi
1:51 pm88 °FScattered showers. Scattered clouds.14 mph62%N/A6 mi
Weather by CustomWeather, © 2019

See weather overview